SUSat (42730 NORAD) Tracking and Keplerian Element Data

This shows tracking and keplerian element data for the satellite.

Feedback or suggestion? Click here.




ElementValue
Catalog42730
NameSUSat
Epoch Orbit8424
Epoch Day319.9404089
Epoch Year2018
RAAN297.5522
Inclination51.6336
Eccentricity0.0004659
Argument of Perigee81.3335
Mean Anonmoly278.8195
Mean Motion15.8046698
Decay Rate0.00046004
L11 42730U 98067MK 18319.94040890 .00046004 00000-0 23924-3 0 9999
L22 42730 51.6336 297.5522 0004659 81.3335 278.8195 15.80466980 84246

Live tracking and technical data element details for SUSat (NORAD 42730). SUSat can be tracked NOW for your location showing map with azimuth and elevation plus other details from your city location.

Track the satellite on the map from your city or location and see movement details for azimuth, elevation, latitude, longitude, range, height, and movement on the map or in text.







IsCatalogInMostPopularTable: catalog: 42730, numindb: 147
Update: records affected: 1



GetName: 42730 SUSat

Hit Count: updated at: Fri, 16 Nov 2018 11:19:07 GMT